Overview Statistics Trail Chart Weather Telemetry Raw packets
 

This is the latest recevied weather packets stored in our database for station/object IU2PLZ-10. If no packets are shown the sender has not sent any weather packets the latest 10 day(s).

<< 34 35 36 37 38 >>
Time Temp. Humidity Pressure Rain* Wind** Luminosity Snow
1787739185 45.56° C 27% 967.8 hPa - - - -
1787738284 46.11° C 28% 968.6 hPa - - - -
1787737384 46.67° C 26% 968.6 hPa - - - -
1787736484 47.22° C 26% 968.7 hPa - - - -
1787735584 46.67° C 27% 968.6 hPa - - - -
1787734684 46.11° C 28% 968.6 hPa - - - -
1787733784 45° C 29% 968.5 hPa - - - -
1787732893 44.44° C 30% 967.8 hPa - - - -
1787731983 45.56° C 30% 968.4 hPa - - - -
1787731083 45° C 30% 967.7 hPa - - - -
1787730183 43.89° C 32% 967.6 hPa - - - -
1787729283 42.22° C 34% 967.4 hPa - - - -
1787728382 41.67° C 35% 968.2 hPa - - - -
1787726582 38.89° C 39% 968 hPa - - - -
1787725682 37.22° C 41% 967.3 hPa - - - -
1787724782 36.11° C 45% 967.9 hPa - - - -
1787723881 33.89° C 50% 967 hPa - - - -
1787722985 32.78° C 57% 967.8 hPa - - - -
1787722081 31.11° C 69% 966.9 hPa - - - -
1787721181 30.56° C 80% 967.8 hPa - - - -
1787720281 29.44° C 80% 967 hPa - - - -
1787719381 30° C 77% 967.8 hPa - - - -
1787718480 30° C 76% 967.7 hPa - - - -
1787717580 30° C 77% 967.7 hPa - - - -
1787716680 29.44° C 77% 966.9 hPa - - - -

* Rain since midnight (hover to see other rain measurements)
** Current wind speed in m/s (hover to see current wind gust speed)